owner,sensor,date,latitude,longitude,vertical_datum,direction_of_sea_water_velocity,sea_water_speed,upward_sea_water_velocity,qcFlag 
TABS,ioos:station:wmo:42051:1,2002-11-10T20:00:00Z,29.6350,-93.6417,2.0,290.1912855,21.67177888,-99999.0,'11111222,11111222,99999999' 
TABS,ioos:station:wmo:42051:1,2002-11-10T20:30:00Z,29.6350,-93.6417,2.0,290.6385287,22.86752282,-99999.0,'11111222,11111222,99999999' 
TABS,ioos:station:wmo:42051:1,2002-11-10T21:00:00Z,29.6350,-93.6417,2.0,299.4847574,22.91813474,-99999.0,'11111222,11111222,99999999' 
TABS,ioos:station:wmo:42051:1,2002-11-10T21:30:00Z,29.6350,-93.6417,2.0,297.928543,23.12301451,-99999.0,'11111222,11111222,99999999' 
TABS,ioos:station:wmo:42051:1,2002-11-10T22:00:00Z,29.6350,-93.6417,2.0,304.4945288,24.70323258,-99999.0,'11111222,11111222,99999999' 
TABS,ioos:station:wmo:42051:1,2002-11-10T22:30:00Z,29.6350,-93.6417,2.0,305.8820628,24.00557019,-99999.0,'11111222,11111222,99999999' 
TABS,ioos:station:wmo:42051:1,2002-11-10T23:00:00Z,29.6350,-93.6417,2.0,321.2503315,24.81135627,-99999.0,'11111222,11111222,99999999' 
TABS,ioos:station:wmo:42051:1,2002-11-10T23:30:00Z,29.6350,-93.6417,2.0,317.9799475,23.12537135,-99999.0,'11111222,11111222,99999999' 
TABS,ioos:station:wmo:42051:1,2002-11-11T00:00:00Z,29.6350,-93.6417,2.0,325.352282,23.0593365,-99999.0,'11111222,11111222,99999999' 
TABS,ioos:station:wmo:42051:1,2002-11-11T00:30:00Z,29.6350,-93.6417,2.0,334.4443278,22.34625696,-99999.0,'11111222,11111222,99999999' 
TABS,ioos:station:wmo:42051:1,2002-11-11T01:00:00Z,29.6350,-93.6417,2.0,336.9660084,21.05901232,-99999.0,'11111222,11111222,99999999' 
TABS,ioos:station:wmo:42051:1,2002-11-11T01:30:00Z,29.6350,-93.6417,2.0,339.3751649,18.45272067,-99999.0,'11111222,11111222,99999999' 
TABS,ioos:station:wmo:42051:1,2002-11-11T02:00:00Z,29.6350,-93.6417,2.0,350.3950288,17.14029171,-99999.0,'11111222,11111222,99999999' 
TABS,ioos:station:wmo:42051:1,2002-11-11T02:30:00Z,29.6350,-93.6417,2.0,353.4961034,16.59682198,-99999.0,'11111222,11111222,99999999' 
TABS,ioos:station:wmo:42051:1,2002-11-11T03:00:00Z,29.6350,-93.6417,2.0,356.3557295,12.58545192,-99999.0,'11111222,11111222,99999999' 
TABS,ioos:station:wmo:42051:1,2002-11-11T03:30:00Z,29.6350,-93.6417,2.0,10.84778867,13.12451904,-99999.0,'11111222,11111222,99999999' 
TABS,ioos:station:wmo:42051:1,2002-11-11T05:00:00Z,29.6350,-93.6417,2.0,43.40896868,10.69557853,-99999.0,'11111222,11111222,99999999' 
TABS,ioos:station:wmo:42051:1,2002-11-11T05:30:00Z,29.6350,-93.6417,2.0,67.43304369,12.50769763,-99999.0,'11111222,11111222,99999999' 
TABS,ioos:station:wmo:42051:1,2002-11-11T06:00:00Z,29.6350,-93.6417,2.0,85.04395616,10.88068013,-99999.0,'11111222,11111222,99999999' 
TABS,ioos:station:wmo:42051:1,2002-11-11T06:30:00Z,29.6350,-93.6417,2.0,101.9272288,15.29010137,-99999.0,'11111222,11111222,99999999' 
TABS,ioos:station:wmo:42051:1,2002-11-11T07:00:00Z,29.6350,-93.6417,2.0,103.7090598,19.1145442,-99999.0,'11111222,11111222,99999999' 
TABS,ioos:station:wmo:42051:1,2002-11-11T07:30:00Z,29.6350,-93.6417,2.0,103.9548353,18.7844031,-99999.0,'11111222,11111222,99999999' 
TABS,ioos:station:wmo:42051:1,2002-11-11T08:00:00Z,29.6350,-93.6417,2.0,107.9608391,21.40302782,-99999.0,'11111222,11111222,99999999' 
TABS,ioos:station:wmo:42051:1,2002-11-11T08:30:00Z,29.6350,-93.6417,2.0,113.1685368,22.57026584,-99999.0,'11111222,11111222,99999999' 
TABS,ioos:station:wmo:42051:1,2002-11-11T09:00:00Z,29.6350,-93.6417,2.0,111.9589261,27.00948907,-99999.0,'11111222,11111222,99999999' 
TABS,ioos:station:wmo:42051:1,2002-11-11T09:30:00Z,29.6350,-93.6417,2.0,128.0326216,36.95761085,-99999.0,'11111222,11111222,99999999' 
TABS,ioos:station:wmo:42051:1,2002-11-11T10:00:00Z,29.6350,-93.6417,2.0,141.3078,33.27282525,-99999.0,'11111222,11111222,99999999' 
TABS,ioos:station:wmo:42051:1,2002-11-11T10:30:00Z,29.6350,-93.6417,2.0,154.5855117,35.18491722,-99999.0,'11111222,11111222,99999999' 
TABS,ioos:station:wmo:42051:1,2002-11-11T11:00:00Z,29.6350,-93.6417,2.0,159.1686287,35.09402228,-99999.0,'11111222,11111222,99999999' 
TABS,ioos:station:wmo:42051:1,2002-11-11T11:30:00Z,29.6350,-93.6417,2.0,163.4948238,31.64388883,-99999.0,'11111222,11111222,99999999' 
TABS,ioos:station:wmo:42051:1,2002-11-11T12:00:00Z,29.6350,-93.6417,2.0,168.8915806,25.06968089,-99999.0,'11111222,11111222,99999999' 
TABS,ioos:station:wmo:42051:1,2002-11-11T12:30:00Z,29.6350,-93.6417,2.0,179.2616308,20.18167486,-99999.0,'11111222,11111222,99999999' 
TABS,ioos:station:wmo:42051:1,2002-11-11T13:00:00Z,29.6350,-93.6417,2.0,185.0135753,14.64604042,-99999.0,'11111222,11111222,99999999' 
TABS,ioos:station:wmo:42051:1,2002-11-11T13:30:00Z,29.6350,-93.6417,2.0,197.785805,23.73441594,-99999.0,'11111222,11111222,99999999' 
TABS,ioos:station:wmo:42051:1,2002-11-11T14:00:00Z,29.6350,-93.6417,2.0,209.0681105,28.25956298,-99999.0,'11111222,11111222,99999999' 
TABS,ioos:station:wmo:42051:1,2002-11-11T14:30:00Z,29.6350,-93.6417,2.0,211.838969,25.59057639,-99999.0,'11111222,11111222,99999999' 
TABS,ioos:station:wmo:42051:1,2002-11-11T15:00:00Z,29.6350,-93.6417,2.0,219.5853873,24.35535465,-99999.0,'11111222,11111222,99999999' 
TABS,ioos:station:wmo:42051:1,2002-11-11T15:30:00Z,29.6350,-93.6417,2.0,228.0986974,28.64435896,-99999.0,'11111222,11111222,99999999' 
TABS,ioos:station:wmo:42051:1,2002-11-11T16:00:00Z,29.6350,-93.6417,2.0,235.4144187,27.69401379,-99999.0,'11111222,11111222,99999999' 
TABS,ioos:station:wmo:42051:1,2002-11-11T16:30:00Z,29.6350,-93.6417,2.0,231.8711575,29.1370297,-99999.0,'11111222,11111222,99999999' 
TABS,ioos:station:wmo:42051:1,2002-11-11T17:00:00Z,29.6350,-93.6417,2.0,248.6524269,34.66855203,-99999.0,'11111222,11111222,99999999' 
TABS,ioos:station:wmo:42051:1,2002-11-11T17:30:00Z,29.6350,-93.6417,2.0,247.2018231,35.66632586,-99999.0,'11111222,11111222,99999999' 
TABS,ioos:station:wmo:42051:1,2002-11-11T18:00:00Z,29.6350,-93.6417,2.0,257.2438431,29.8466112,-99999.0,'11111222,11111222,99999999' 
TABS,ioos:station:wmo:42051:1,2002-11-11T18:30:00Z,29.6350,-93.6417,2.0,256.6568902,31.45917513,-99999.0,'11111222,11111222,99999999' 
TABS,ioos:station:wmo:42051:1,2002-11-11T19:00:00Z,29.6350,-93.6417,2.0,262.1035542,29.77227234,-99999.0,'11111222,11111222,99999999' 
TABS,ioos:station:wmo:42051:1,2002-11-11T19:30:00Z,29.6350,-93.6417,2.0,274.5282336,28.24815923,-99999.0,'11111222,11111222,99999999' 
TABS,ioos:station:wmo:42051:1,2002-11-11T20:00:00Z,29.6350,-93.6417,2.0,278.3180507,29.37902994,-99999.0,'11111222,11111222,99999999' 
TABS,ioos:station:wmo:42051:1,2002-11-11T20:30:00Z,29.6350,-93.6417,2.0,287.356547,31.91303809,-99999.0,'11111222,11111222,99999999' 
TABS,ioos:station:wmo:42051:1,2002-11-11T21:00:00Z,29.6350,-93.6417,2.0,296.7576765,31.98489644,-99999.0,'11111222,11111222,99999999' 
TABS,ioos:station:wmo:42051:1,2002-11-11T21:30:00Z,29.6350,-93.6417,2.0,307.4145436,33.26350102,-99999.0,'11111222,11111222,99999999' 
TABS,ioos:station:wmo:42051:1,2002-11-11T22:00:00Z,29.6350,-93.6417,2.0,303.6231669,33.08511599,-99999.0,'11111222,11111222,99999999' 
TABS,ioos:station:wmo:42051:1,2002-11-11T22:30:00Z,29.6350,-93.6417,2.0,309.6401208,34.51632657,-99999.0,'11111222,11111222,99999999' 
TABS,ioos:station:wmo:42051:1,2002-11-11T23:00:00Z,29.6350,-93.6417,2.0,308.2919164,33.29224835,-99999.0,'11111222,11111222,99999999' 
TABS,ioos:station:wmo:42051:1,2002-11-11T23:30:00Z,29.6350,-93.6417,2.0,309.9181469,31.37037615,-99999.0,'11111222,11111222,99999999' 
TABS,ioos:station:wmo:42051:1,2002-11-12T00:00:00Z,29.6350,-93.6417,2.0,308.9457737,33.51999105,-99999.0,'11111222,11111222,99999999' 
TABS,ioos:station:wmo:42051:1,2002-11-12T00:30:00Z,29.6350,-93.6417,2.0,310.1602145,28.15840905,-99999.0,'11111222,11111222,99999999' 
TABS,ioos:station:wmo:42051:1,2002-11-12T01:00:00Z,29.6350,-93.6417,2.0,308.1951513,24.82463696,-99999.0,'11111222,11111222,99999999' 
TABS,ioos:station:wmo:42051:1,2002-11-12T01:30:00Z,29.6350,-93.6417,2.0,320.5635933,32.02012648,-99999.0,'11111222,11111222,99999999' 
TABS,ioos:station:wmo:42051:1,2002-11-12T02:00:00Z,29.6350,-93.6417,2.0,306.3560198,25.40502313,-99999.0,'11111222,11111222,99999999' 
TABS,ioos:station:wmo:42051:1,2002-11-12T02:30:00Z,29.6350,-93.6417,2.0,293.7897643,20.50196332,-99999.0,'11111222,11111222,99999999' 
TABS,ioos:station:wmo:42051:1,2002-11-12T03:00:00Z,29.6350,-93.6417,2.0,263.7042749,18.33053463,-99999.0,'11111222,11111222,99999999' 
TABS,ioos:station:wmo:42051:1,2002-11-12T03:30:00Z,29.6350,-93.6417,2.0,246.1276963,20.55875483,-99999.0,'11111222,11111222,99999999' 
TABS,ioos:station:wmo:42051:1,2002-11-12T04:00:00Z,29.6350,-93.6417,2.0,255.9871475,23.37558555,-99999.0,'11111222,11111222,99999999' 
TABS,ioos:station:wmo:42051:1,2002-11-12T04:30:00Z,29.6350,-93.6417,2.0,239.1297562,14.65628875,-99999.0,'11111222,11111222,99999999' 
TABS,ioos:station:wmo:42051:1,2002-11-12T05:00:00Z,29.6350,-93.6417,2.0,242.2643165,18.39325963,-99999.0,'11111222,11111222,99999999' 
TABS,ioos:station:wmo:42051:1,2002-11-12T05:30:00Z,29.6350,-93.6417,2.0,253.02598,24.80032258,-99999.0,'11111222,11111222,99999999' 
TABS,ioos:station:wmo:42051:1,2002-11-12T06:00:00Z,29.6350,-93.6417,2.0,237.929125,18.64537476,-99999.0,'11111222,11111222,99999999' 
TABS,ioos:station:wmo:42051:1,2002-11-12T06:30:00Z,29.6350,-93.6417,2.0,219.5039286,18.01503816,-99999.0,'11111222,11111222,99999999' 
TABS,ioos:station:wmo:42051:1,2002-11-12T07:00:00Z,29.6350,-93.6417,2.0,206.1113377,17.51790513,-99999.0,'11111222,11111222,99999999' 
TABS,ioos:station:wmo:42051:1,2002-11-12T07:30:00Z,29.6350,-93.6417,2.0,199.6125706,16.92176114,-99999.0,'11111222,11111222,99999999' 
TABS,ioos:station:wmo:42051:1,2002-11-12T08:00:00Z,29.6350,-93.6417,2.0,205.3513975,19.85179085,-99999.0,'11111222,11111222,99999999' 
TABS,ioos:station:wmo:42051:1,2002-11-12T08:30:00Z,29.6350,-93.6417,2.0,218.9003283,22.29400144,-99999.0,'11111222,11111222,99999999' 
TABS,ioos:station:wmo:42051:1,2002-11-12T09:00:00Z,29.6350,-93.6417,2.0,236.2118059,26.00160957,-99999.0,'11111222,11111222,99999999' 
TABS,ioos:station:wmo:42051:1,2002-11-12T09:30:00Z,29.6350,-93.6417,2.0,236.5370896,23.05074836,-99999.0,'11111222,11111222,99999999' 
TABS,ioos:station:wmo:42051:1,2002-11-12T10:00:00Z,29.6350,-93.6417,2.0,244.5036383,25.6476919,-99999.0,'11111222,11111222,99999999' 
TABS,ioos:station:wmo:42051:1,2002-11-12T10:30:00Z,29.6350,-93.6417,2.0,252.060402,24.12275689,-99999.0,'11111222,11111222,99999999' 
TABS,ioos:station:wmo:42051:1,2002-11-12T11:00:00Z,29.6350,-93.6417,2.0,241.5690485,39.1519412,-99999.0,'11111222,11111222,99999999' 
TABS,ioos:station:wmo:42051:1,2002-11-12T11:30:00Z,29.6350,-93.6417,2.0,249.4537791,32.88154041,-99999.0,'11111222,11111222,99999999' 
TABS,ioos:station:wmo:42051:1,2002-11-12T12:00:00Z,29.6350,-93.6417,2.0,250.6333926,32.29744572,-99999.0,'11111222,11111222,99999999' 
TABS,ioos:station:wmo:42051:1,2002-11-12T12:30:00Z,29.6350,-93.6417,2.0,252.6963734,32.98266514,-99999.0,'11111222,11111222,99999999' 
TABS,ioos:station:wmo:42051:1,2002-11-12T13:00:00Z,29.6350,-93.6417,2.0,249.9526904,34.51094464,-99999.0,'11111222,11111222,99999999' 
TABS,ioos:station:wmo:42051:1,2002-11-12T13:30:00Z,29.6350,-93.6417,2.0,255.042682,34.71618067,-99999.0,'11111222,11111222,99999999' 
TABS,ioos:station:wmo:42051:1,2002-11-12T14:00:00Z,29.6350,-93.6417,2.0,257.7475023,34.58779554,-99999.0,'11111222,11111222,99999999' 
TABS,ioos:station:wmo:42051:1,2002-11-12T14:30:00Z,29.6350,-93.6417,2.0,257.2460218,32.07124569,-99999.0,'11111222,11111222,99999999' 
TABS,ioos:station:wmo:42051:1,2002-11-12T15:00:00Z,29.6350,-93.6417,2.0,265.2345419,33.82691532,-99999.0,'11111222,11111222,99999999' 
TABS,ioos:station:wmo:42051:1,2002-11-12T15:30:00Z,29.6350,-93.6417,2.0,259.5990514,30.52147605,-99999.0,'11111222,11111222,99999999' 
TABS,ioos:station:wmo:42051:1,2002-11-12T16:00:00Z,29.6350,-93.6417,2.0,259.7917789,32.2199969,-99999.0,'11111222,11111222,99999999' 
TABS,ioos:station:wmo:42051:1,2002-11-12T16:30:00Z,29.6350,-93.6417,2.0,256.6062885,32.20590784,-99999.0,'11111222,11111222,99999999' 
TABS,ioos:station:wmo:42051:1,2002-11-12T17:00:00Z,29.6350,-93.6417,2.0,252.5959275,33.03217825,-99999.0,'11111222,11111222,99999999' 
TABS,ioos:station:wmo:42051:1,2002-11-12T17:30:00Z,29.6350,-93.6417,2.0,259.8820799,28.17818482,-99999.0,'11111222,11111222,99999999' 
TABS,ioos:station:wmo:42051:1,2002-11-12T18:00:00Z,29.6350,-93.6417,2.0,257.2906561,32.7729309,-99999.0,'11111222,11111222,99999999' 
TABS,ioos:station:wmo:42051:1,2002-11-12T18:30:00Z,29.6350,-93.6417,2.0,260.696721,23.63080193,-99999.0,'11111222,11111222,99999999' 
TABS,ioos:station:wmo:42051:1,2002-11-12T19:00:00Z,29.6350,-93.6417,2.0,254.7688048,26.87393719,-99999.0,'11111222,11111222,99999999' 
TABS,ioos:station:wmo:42051:1,2002-11-12T19:30:00Z,29.6350,-93.6417,2.0,264.6107436,23.21259356,-99999.0,'11111222,11111222,99999999' 
TABS,ioos:station:wmo:42051:1,2002-11-12T20:00:00Z,29.6350,-93.6417,2.0,262.190047,17.44176883,-99999.0,'11111222,11111222,99999999' 
TABS,ioos:station:wmo:42051:1,2002-11-12T20:30:00Z,29.6350,-93.6417,2.0,260.4302582,16.72269416,-99999.0,'11111222,11111222,99999999' 
TABS,ioos:station:wmo:42051:1,2002-11-12T21:00:00Z,29.6350,-93.6417,2.0,259.2594121,22.48386533,-99999.0,'11111222,11111222,99999999' 
TABS,ioos:station:wmo:42051:1,2002-11-12T21:30:00Z,29.6350,-93.6417,2.0,256.4023242,19.3112532,-99999.0,'11111222,11111222,99999999' 
TABS,ioos:station:wmo:42051:1,2002-11-12T22:00:00Z,29.6350,-93.6417,2.0,257.597514,14.71334428,-99999.0,'11111222,11111222,99999999' 
TABS,ioos:station:wmo:42051:1,2002-11-12T22:30:00Z,29.6350,-93.6417,2.0,250.3149471,16.23899627,-99999.0,'11111222,11111222,99999999' 
TABS,ioos:station:wmo:42051:1,2002-11-12T23:00:00Z,29.6350,-93.6417,2.0,257.7006796,15.67985969,-99999.0,'11111222,11111222,99999999' 
TABS,ioos:station:wmo:42051:1,2002-11-12T23:30:00Z,29.6350,-93.6417,2.0,267.99003,13.68841846,-99999.0,'11111222,11111222,99999999' 
TABS,ioos:station:wmo:42051:1,2002-11-13T00:00:00Z,29.6350,-93.6417,2.0,280.5293503,12.80561205,-99999.0,'11111222,11111222,99999999' 
TABS,ioos:station:wmo:42051:1,2002-11-13T00:30:00Z,29.6350,-93.6417,2.0,273.7395287,9.660564166,-99999.0,'11133222,11111222,99999999' 
TABS,ioos:station:wmo:42051:1,2002-11-13T01:00:00Z,29.6350,-93.6417,2.0,266.7183641,10.65747156,-99999.0,'11111222,11111222,99999999' 
TABS,ioos:station:wmo:42051:1,2002-11-13T01:30:00Z,29.6350,-93.6417,2.0,272.2452227,11.99920831,-99999.0,'11111222,11111222,99999999' 
TABS,ioos:station:wmo:42051:1,2002-11-13T02:00:00Z,29.6350,-93.6417,2.0,279.2171196,10.73864051,-99999.0,'11111222,11111222,99999999' 
TABS,ioos:station:wmo:42051:1,2002-11-13T02:30:00Z,29.6350,-93.6417,2.0,278.5621226,7.321591357,-99999.0,'11133222,11111222,99999999' 
TABS,ioos:station:wmo:42051:1,2002-11-13T03:00:00Z,29.6350,-93.6417,2.0,302.7412819,6.027644648,-99999.0,'11133222,11111222,99999999' 
TABS,ioos:station:wmo:42051:1,2002-11-13T03:30:00Z,29.6350,-93.6417,2.0,304.1189405,3.708274531,-99999.0,'11133222,11111222,99999999' 
TABS,ioos:station:wmo:42051:1,2002-11-13T04:00:00Z,29.6350,-93.6417,2.0,283.0326152,4.567647097,-99999.0,'11133222,11111222,99999999' 
TABS,ioos:station:wmo:42051:1,2002-11-13T04:30:00Z,29.6350,-93.6417,2.0,274.0974655,7.138242081,-99999.0,'11133222,11111222,99999999' 
TABS,ioos:station:wmo:42051:1,2002-11-13T05:00:00Z,29.6350,-93.6417,2.0,305.0211173,4.896549806,-99999.0,'11133222,11111222,99999999' 
TABS,ioos:station:wmo:42051:1,2002-11-13T05:30:00Z,29.6350,-93.6417,2.0,344.9171859,4.38092456,-99999.0,'11133222,11111222,99999999' 
TABS,ioos:station:wmo:42051:1,2002-11-13T08:30:00Z,29.6350,-93.6417,2.0,251.1250735,1.236486959,-99999.0,'11133222,11111222,99999999' 
TABS,ioos:station:wmo:42051:1,2002-11-13T09:00:00Z,29.6350,-93.6417,2.0,35.1888713,0.954410813,-99999.0,'11133222,11111222,99999999' 
TABS,ioos:station:wmo:42051:1,2002-11-13T09:30:00Z,29.6350,-93.6417,2.0,22.89465947,5.937760521,-99999.0,'11133222,11111222,99999999' 
TABS,ioos:station:wmo:42051:1,2002-11-13T10:00:00Z,29.6350,-93.6417,2.0,46.52424173,6.380360491,-99999.0,'11133222,11111222,99999999' 
TABS,ioos:station:wmo:42051:1,2002-11-13T10:30:00Z,29.6350,-93.6417,2.0,57.28103092,8.510323143,-99999.0,'11133222,11111222,99999999' 
TABS,ioos:station:wmo:42051:1,2002-11-13T11:00:00Z,29.6350,-93.6417,2.0,312.7545784,0.721803297,-99999.0,'11133222,11111222,99999999' 
TABS,ioos:station:wmo:42051:1,2002-11-13T11:30:00Z,29.6350,-93.6417,2.0,85.5752259,5.055066765,-99999.0,'11133222,11111222,99999999' 
TABS,ioos:station:wmo:42051:1,2002-11-13T12:00:00Z,29.6350,-93.6417,2.0,83.49438857,1.147388339,-99999.0,'11133222,11111222,99999999' 
TABS,ioos:station:wmo:42051:1,2002-11-13T12:30:00Z,29.6350,-93.6417,2.0,48.45185107,2.231434516,-99999.0,'11133222,11111222,99999999' 
TABS,ioos:station:wmo:42051:1,2002-11-13T13:00:00Z,29.6350,-93.6417,2.0,302.1960796,3.828733472,-99999.0,'11133222,11111222,99999999' 
TABS,ioos:station:wmo:42051:1,2002-11-13T13:30:00Z,29.6350,-93.6417,2.0,331.1704721,3.960934233,-99999.0,'11133222,11111222,99999999' 
TABS,ioos:station:wmo:42051:1,2002-11-13T14:00:00Z,29.6350,-93.6417,2.0,329.6873302,4.378641342,-99999.0,'11133222,11111222,99999999' 
TABS,ioos:station:wmo:42051:1,2002-11-13T14:30:00Z,29.6350,-93.6417,2.0,6.979552382,6.830614906,-99999.0,'11133222,11111222,99999999' 
TABS,ioos:station:wmo:42051:1,2002-11-13T15:00:00Z,29.6350,-93.6417,2.0,0.504264717,3.410131962,-99999.0,'11133222,11111222,99999999' 
TABS,ioos:station:wmo:42051:1,2002-11-13T15:30:00Z,29.6350,-93.6417,2.0,355.7964843,5.183946373,-99999.0,'11133222,11111222,99999999' 
TABS,ioos:station:wmo:42051:1,2002-11-13T16:00:00Z,29.6350,-93.6417,2.0,349.8189143,7.467589973,-99999.0,'11133222,11111222,99999999' 
TABS,ioos:station:wmo:42051:1,2002-11-13T16:30:00Z,29.6350,-93.6417,2.0,354.6562571,9.019201739,-99999.0,'11133222,11111222,99999999' 
TABS,ioos:station:wmo:42051:1,2002-11-13T17:00:00Z,29.6350,-93.6417,2.0,12.17026214,7.969096561,-99999.0,'11133222,11111222,99999999' 
TABS,ioos:station:wmo:42051:1,2002-11-13T17:30:00Z,29.6350,-93.6417,2.0,22.46917869,8.765414993,-99999.0,'11133222,11111222,99999999' 
TABS,ioos:station:wmo:42051:1,2002-11-13T18:00:00Z,29.6350,-93.6417,2.0,356.9433983,11.62654291,-99999.0,'11111222,11111222,99999999' 
TABS,ioos:station:wmo:42051:1,2002-11-13T18:30:00Z,29.6350,-93.6417,2.0,14.63184069,15.6371161,-99999.0,'11111222,11111222,99999999' 
TABS,ioos:station:wmo:42051:1,2002-11-13T19:00:00Z,29.6350,-93.6417,2.0,20.8636101,11.34379125,-99999.0,'11111222,11111222,99999999' 
TABS,ioos:station:wmo:42051:1,2002-11-13T19:30:00Z,29.6350,-93.6417,2.0,12.36492288,10.22722836,-99999.0,'11111222,11111222,99999999' 
TABS,ioos:station:wmo:42051:1,2002-11-13T20:00:00Z,29.6350,-93.6417,2.0,4.66843254,8.478124793,-99999.0,'11133222,11111222,99999999' 
TABS,ioos:station:wmo:42051:1,2002-11-13T20:30:00Z,29.6350,-93.6417,2.0,13.86120561,11.89642804,-99999.0,'11111222,11111222,99999999' 
TABS,ioos:station:wmo:42051:1,2002-11-13T21:00:00Z,29.6350,-93.6417,2.0,357.6464384,16.31376413,-99999.0,'11111222,11111222,99999999' 
TABS,ioos:station:wmo:42051:1,2002-11-13T21:30:00Z,29.6350,-93.6417,2.0,1.830685385,19.40990469,-99999.0,'11111222,11111222,99999999' 
TABS,ioos:station:wmo:42051:1,2002-11-13T22:00:00Z,29.6350,-93.6417,2.0,4.527189784,18.49770797,-99999.0,'11111222,11111222,99999999' 
TABS,ioos:station:wmo:42051:1,2002-11-13T22:30:00Z,29.6350,-93.6417,2.0,23.77674764,14.70838196,-99999.0,'11111222,11111222,99999999' 
TABS,ioos:station:wmo:42051:1,2002-11-13T23:00:00Z,29.6350,-93.6417,2.0,5.565126466,17.2211643,-99999.0,'11111222,11111222,99999999' 
TABS,ioos:station:wmo:42051:1,2002-11-13T23:30:00Z,29.6350,-93.6417,2.0,10.26728867,20.36611156,-99999.0,'11111222,11111222,99999999' 
TABS,ioos:station:wmo:42051:1,2002-11-14T00:00:00Z,29.6350,-93.6417,2.0,357.7906153,25.15870625,-99999.0,'11111222,11111222,99999999' 
TABS,ioos:station:wmo:42051:1,2002-11-14T00:30:00Z,29.6350,-93.6417,2.0,2.54236429,28.85840086,-99999.0,'11111222,11111222,99999999' 
TABS,ioos:station:wmo:42051:1,2002-11-14T01:00:00Z,29.6350,-93.6417,2.0,3.120225601,34.54120004,-99999.0,'11111222,11111222,99999999' 
TABS,ioos:station:wmo:42051:1,2002-11-14T01:30:00Z,29.6350,-93.6417,2.0,1.645371226,32.39335271,-99999.0,'11111222,11111222,99999999' 
TABS,ioos:station:wmo:42051:1,2002-11-14T02:00:00Z,29.6350,-93.6417,2.0,3.40877691,31.95653298,-99999.0,'11111222,11111222,99999999' 
TABS,ioos:station:wmo:42051:1,2002-11-14T02:30:00Z,29.6350,-93.6417,2.0,2.637829132,30.42223036,-99999.0,'11111222,11111222,99999999' 
TABS,ioos:station:wmo:42051:1,2002-11-14T03:00:00Z,29.6350,-93.6417,2.0,0.785033226,31.39294507,-99999.0,'11111222,11111222,99999999' 
TABS,ioos:station:wmo:42051:1,2002-11-14T03:30:00Z,29.6350,-93.6417,2.0,5.587918445,25.9834659,-99999.0,'11111222,11111222,99999999' 
TABS,ioos:station:wmo:42051:1,2002-11-14T04:00:00Z,29.6350,-93.6417,2.0,9.750248367,18.65952036,-99999.0,'11111222,11111222,99999999' 
TABS,ioos:station:wmo:42051:1,2002-11-14T04:30:00Z,29.6350,-93.6417,2.0,9.20915979,22.30751667,-99999.0,'11111222,11111222,99999999' 
TABS,ioos:station:wmo:42051:1,2002-11-14T05:00:00Z,29.6350,-93.6417,2.0,9.145115695,17.80632753,-99999.0,'11111222,11111222,99999999' 
TABS,ioos:station:wmo:42051:1,2002-11-14T05:30:00Z,29.6350,-93.6417,2.0,7.952979302,14.16624509,-99999.0,'11111222,11111222,99999999' 
TABS,ioos:station:wmo:42051:1,2002-11-14T06:00:00Z,29.6350,-93.6417,2.0,5.272703429,12.62341079,-99999.0,'11111222,11111222,99999999' 
TABS,ioos:station:wmo:42051:1,2002-11-14T06:30:00Z,29.6350,-93.6417,2.0,10.65253456,10.76552368,-99999.0,'11111222,11111222,99999999' 
TABS,ioos:station:wmo:42051:1,2002-11-14T07:00:00Z,29.6350,-93.6417,2.0,24.26732219,11.26542498,-99999.0,'11111222,11111222,99999999' 
TABS,ioos:station:wmo:42051:1,2002-11-14T07:30:00Z,29.6350,-93.6417,2.0,30.92976972,8.638385266,-99999.0,'11133222,11111222,99999999' 
TABS,ioos:station:wmo:42051:1,2002-11-14T08:00:00Z,29.6350,-93.6417,2.0,37.08631676,10.06607173,-99999.0,'11111222,11111222,99999999' 
TABS,ioos:station:wmo:42051:1,2002-11-14T08:30:00Z,29.6350,-93.6417,2.0,25.79060737,9.262640012,-99999.0,'11133222,11111222,99999999' 
TABS,ioos:station:wmo:42051:1,2002-11-14T09:00:00Z,29.6350,-93.6417,2.0,32.56853999,9.492739331,-99999.0,'11133222,11111222,99999999' 
TABS,ioos:station:wmo:42051:1,2002-11-14T09:30:00Z,29.6350,-93.6417,2.0,32.49172036,8.619153091,-99999.0,'11133222,11111222,99999999' 
TABS,ioos:station:wmo:42051:1,2002-11-14T10:00:00Z,29.6350,-93.6417,2.0,41.22220066,13.41468225,-99999.0,'11111222,11111222,99999999' 
TABS,ioos:station:wmo:42051:1,2002-11-14T10:30:00Z,29.6350,-93.6417,2.0,47.90960574,10.30876326,-99999.0,'11111222,11111222,99999999' 
TABS,ioos:station:wmo:42051:1,2002-11-14T11:00:00Z,29.6350,-93.6417,2.0,48.59400255,11.50604189,-99999.0,'11111222,11111222,99999999' 
TABS,ioos:station:wmo:42051:1,2002-11-14T11:30:00Z,29.6350,-93.6417,2.0,43.08670842,9.530041973,-99999.0,'11133222,11111222,99999999' 
TABS,ioos:station:wmo:42051:1,2002-11-14T12:00:00Z,29.6350,-93.6417,2.0,34.80259622,11.14325356,-99999.0,'11111222,11111222,99999999' 
TABS,ioos:station:wmo:42051:1,2002-11-14T12:30:00Z,29.6350,-93.6417,2.0,53.05304503,10.39800942,-99999.0,'11111222,11111222,99999999' 
TABS,ioos:station:wmo:42051:1,2002-11-14T13:00:00Z,29.6350,-93.6417,2.0,37.14194504,11.37812814,-99999.0,'11111222,11111222,99999999' 
TABS,ioos:station:wmo:42051:1,2002-11-14T13:30:00Z,29.6350,-93.6417,2.0,36.14042509,11.93696779,-99999.0,'11111222,11111222,99999999' 
TABS,ioos:station:wmo:42051:1,2002-11-14T14:00:00Z,29.6350,-93.6417,2.0,42.28078959,11.02914321,-99999.0,'11111222,11111222,99999999' 
TABS,ioos:station:wmo:42051:1,2002-11-14T14:30:00Z,29.6350,-93.6417,2.0,38.65047202,9.462568362,-99999.0,'11133222,11111222,99999999' 
TABS,ioos:station:wmo:42051:1,2002-11-14T15:00:00Z,29.6350,-93.6417,2.0,36.64794685,10.32007752,-99999.0,'11111222,11111222,99999999' 
TABS,ioos:station:wmo:42051:1,2002-11-14T15:30:00Z,29.6350,-93.6417,2.0,46.49964876,8.106219834,-99999.0,'11133222,11111222,99999999' 